Location: Deep Valley
(39.7548°N, 80.4695°W)
Time: 14:27:24
(UTC+00:00)

ISS - Pass Details

Date: 04 December 2020
Orbit: 418 x 419 km, 51.6° (Epoch: 18 January)

Event Time Altitude Azimuth Distance (km) Brightness Sun altitude
Rises 23:22:32 0° 313° (NW) 2,368 0.5 -16.0°
Reaches altitude 10° 23:24:52 10° 327° (NNW) 1,501 -0.7 -16.4°
Enters shadow 23:27:23 25° 14° (NNE) 884 -2.4 -16.8°
